Weather History for KABE - May, 2013

Change the Weather History Date:

Sunday, May 26, 2013

  Actual Average Record
Temperature  
Mean Temperature 56 °F 63 °F  
Max Temperature 69 °F 75 °F 92 °F (2010)
Min Temperature 43 °F 52 °F 39 °F (1956)
Degree Days  
Heating Degree Days 9 4  
Month to date heating degree days 166 181  
Since 1 July heating degree days 5375 5751  
Cooling Degree Days 0 2  
Month to date cooling degree days 31 26  
Year to date cooling degree days 39 31  
Growing Degree Days 6 (Base 50)    
Moisture  
Dew Point 34 °F    
Average Humidity 48    
Maximum Humidity 70    
Minimum Humidity 25    
Precipitation  
Precipitation 0.00 in 0.14 in 1.40 in (2001)
Month to date precipitation 1.91 3.42  
Year to date precipitation 13.19 16.10  
Snow  
Snow 0.00 in 0.00 in 0.00 in ()
Month to date snowfall 0.0 0.0  
Since 1 July snowfall 21.4 32.9  
Snow Depth 0.00 in    
Sea Level Pressure  
Sea Level Pressure 30.10 in    
Wind  
Wind Speed 10 mph (WNW)    
Max Wind Speed 22 mph    
Max Gust Speed 31 mph    
Visibility 10 miles    
Events      
T = Trace of Precipitation, MM = Missing Value Source: NWS Daily Summary

Daily Weather History Graph

Daily Weather History Graph

Search for Another Location

Airport or City:

Trip Planner

Search our weather history database for the weather conditions in past years. The results will help you decide how hot, cold, wet, or windy it might be!

Date:

Astronomy

May. 26, 2013 Rise Set
Actual Time 5:36 AM EDT 8:22 PM EDT
Civil Twilight 5:03 AM EDT 8:54 PM EDT
Nautical Twilight 4:23 AM EDT 9:34 PM EDT
Astronomical Twilight 3:37 AM EDT 10:21 PM EDT
Moon 10:07 PM EDT (5/26) 7:02 AM EDT (5/26)
Length of Visible Light 15h 50m
Length of Day
14h 46m
Waning Gibbous, 97% of the Moon is Illuminated
May 26
Waning Gibbous
May 31
Last Quarter
Jun 8
New
Jun 16
First Quarter
Jun 23
Full

Hourly Weather History & Observations

Time (EDT) Temp. Windchill Dew Point Humidity Pressure Visibility Wind Dir Wind Speed Gust Speed Precip Events Conditions
12:51 AM 52.0 °F - 32.0 °F 47% 30.05 in 10.0 mi WNW 10.4 mph - N/A   Clear
1:51 AM 51.1 °F - 34.0 °F 52% 30.04 in 10.0 mi NW 10.4 mph 16.1 mph N/A   Clear
2:51 AM 50.0 °F - 35.1 °F 57% 30.04 in 10.0 mi West 6.9 mph - N/A   Clear
3:51 AM 46.9 °F - 35.1 °F 63% 30.06 in 10.0 mi West 4.6 mph - N/A   Clear
4:51 AM 44.1 °F 40.1 °F 35.1 °F 71% 30.06 in 10.0 mi WSW 6.9 mph - N/A   Clear
5:51 AM 44.1 °F 40.8 °F 35.1 °F 71% 30.08 in 10.0 mi WSW 5.8 mph - N/A   Clear
6:51 AM 48.9 °F - 36.0 °F 61% 30.09 in 10.0 mi West 10.4 mph - N/A   Clear
7:51 AM 52.0 °F - 36.0 °F 54% 30.10 in 10.0 mi West 12.7 mph - N/A   Clear
8:51 AM 54.0 °F - 37.0 °F 53% 30.10 in 10.0 mi WNW 12.7 mph 23.0 mph N/A   Clear
9:51 AM 57.9 °F - 35.1 °F 42% 30.10 in 10.0 mi WNW 16.1 mph 23.0 mph N/A   Clear
10:51 AM 59.0 °F - 36.0 °F 42% 30.10 in 10.0 mi WNW 12.7 mph 21.9 mph N/A   Partly Cloudy
11:51 AM 62.1 °F - 37.0 °F 39% 30.09 in 10.0 mi WNW 10.4 mph 21.9 mph N/A   Clear
12:51 PM 64.0 °F - 35.1 °F 34% 30.09 in 10.0 mi NW 12.7 mph 20.7 mph N/A   Partly Cloudy
1:51 PM 66.0 °F - 36.0 °F 33% 30.07 in 10.0 mi West 18.4 mph 25.3 mph N/A   Clear
2:51 PM 66.9 °F - 32.0 °F 27% 30.07 in 10.0 mi NNW 19.6 mph 27.6 mph N/A   Clear
3:51 PM 66.9 °F - 32.0 °F 27% 30.08 in 10.0 mi WNW 15.0 mph 27.6 mph N/A   Clear
4:51 PM 69.1 °F - 32.0 °F 25% 30.08 in 10.0 mi NNW 18.4 mph 26.5 mph N/A   Clear
5:51 PM 69.1 °F - 33.1 °F 26% 30.09 in 10.0 mi NNW 13.8 mph 20.7 mph N/A   Clear
6:51 PM 66.9 °F - 30.0 °F 25% 30.11 in 10.0 mi NNW 12.7 mph 20.7 mph N/A   Clear
7:51 PM 64.0 °F - 28.9 °F 27% 30.12 in 10.0 mi NNW 12.7 mph 21.9 mph N/A   Clear
8:51 PM 55.9 °F - 34.0 °F 44% 30.16 in 10.0 mi North 4.6 mph - N/A   Clear
9:51 PM 53.1 °F - 34.0 °F 48% 30.19 in 10.0 mi Calm Calm - N/A   Clear
10:51 PM 54.0 °F - 33.1 °F 45% 30.21 in 10.0 mi NNW 3.5 mph - N/A   Clear
11:51 PM 51.1 °F - 33.1 °F 50% 30.22 in 10.0 mi Variable 4.6 mph - N/A   Clear